User: anonymous   Login
Location: Unspecified
(0.0000°N, 0.0000°E)
Time: 14:55:15
(UTC+00:00)
Language:

Radcal - Orbit

View from above orbital plane
View from above orbital plane
View from above satellite
View from above satellite

Ground track
Ground track

The orbit data is extracted from the following two-line orbital elements,

1 22698U 93041A   17351.66205386 +.00000058 +00000-0 +19680-4 0  9998
2 22698 089.5567 223.8415 0086786 252.7630 106.4050 14.23361742270653
Epoch (UTC): 17 December 2017 15:53:21
Eccentricity: 0.0086786
inclination: 89.5567°
perigee height: 751 km
apogee height: 876 km
right ascension of ascending node: 223.8415°
argument of perigee: 252.7630°
revolutions per day: 14.23361742
mean anomaly at epoch: 106.4050°
orbit number at epoch: 27065

The dashed part of the orbit path shows where the satellite is in the earth's shadow,  

DLR